{"data":{"norad_id":62516,"intl_designator":"2025-004F","name":"STARLINK-11510 [DTC]","alt_names":[],"object_type":"PAYLOAD","status":"ACTIVE","operator":null,"country":"US","launch_date":"2025-01-08","launch_site_code":"AFETR","launch_vehicle":null,"mission":null,"orbit_class":"UNKNOWN","rcs_meters":null,"size_class":null,"mass_kg":null,"dimensions":null,"purposes":["comms"],"wikipedia_slug":null,"has_3d_model":false,"image_url":null,"decayed_at":null,"tle_current":{"epoch":"2026-05-25T00:00:02.000160Z","epoch_age_seconds":71211,"freshness":"FRESH","line1":"1 62516U 25004F   26145.00002315  .00076060  00000+0  59199-3 0  9994","line2":"2 62516  43.0000 331.0289 0001690 276.7357 209.4656 15.70793232  6005","mean_motion":15.70793232,"eccentricity":0.000169,"inclination_deg":43,"raan_deg":331.0289,"arg_perigee_deg":276.7357,"mean_anomaly_deg":209.4656,"bstar":0.00059199,"rev_number":600,"period_min":91.673427836618,"perigee_km":355.49056117241,"apogee_km":357.76691199138,"semimajor_km":6734.7657365819,"source":"CELESTRAK","updated_at":"2026-05-25T13:38:19.702610Z"}}}